Regional Weather Roundup
Issued by NWS

Home | Current Version | Previous Version | Graphics & Text | Print | Product List | Glossary On
Versions: 1 2 3 4 5 6 7 8 9 10 11 12 13 14 15 16 17 18 19 20 21 22 23 24 25 26 27 28 29 30 31 32 33 34 35 36 37 38 39 40 41 42 43 44 45 46 47 48 49 50
000
ASUS43 KFSD 261102
RWRSD

WEATHER ROUNDUP FOR SOUTH DAKOTA
NATIONAL WEATHER SERVICE SIOUX FALLS SD
600 AM CDT WED JUL 26 2017

NOTE: "FAIR" INDICATES FEW OR NO CLOUDS BELOW 12,000 FEET WITH NO
SIGNIFICANT WEATHER AND/OR OBSTRUCTIONS TO VISIBILITY.


SDZ001>005-009-010-012>017-261200-
NORTHWEST AND NORTH CENTRAL SOUTH DAKOTA

CITY           SKY/WX    TMP DP  RH WIND       PRES   REMARKS
BUFFALO          N/A     66  56  70 W5        30.07R
FAITH            N/A     69  55  60 NW5       30.09R
MOBRIDGE       CLOUDY    64  59  83 N6        30.03R
$$

SDZ012>016-024>037-041>051-057-063-072>074-261200-
SOUTHWEST AND SOUTH CENTRAL SOUTH DAKOTA

CITY           SKY/WX    TMP DP  RH WIND       PRES   REMARKS
RAPID CTY ARPT CLOUDY    68  52  56 N10       30.12S
PIERRE         CLOUDY    71  67  87 E9        29.98S
CUSTER         CLOUDY    63  46  54 NE12      30.25R
PHILIP         MOCLDY    73  63  70 NE10      30.02S
PINE RIDGE     CLOUDY    70  58  65 N7        30.09R
SPEARFISH      CLOUDY    64  55  72 E5        30.18S
WINNER         CLOUDY    71  69  93 NE12      30.00R
$$

SDZ004>011-016>023-039-040-261200-
NORTHEAST SOUTH DAKOTA

CITY           SKY/WX    TMP DP  RH WIND       PRES   REMARKS
ABERDEEN       CLOUDY    69  66  90 N8        30.01R
WATERTOWN      CLOUDY    70  67  90 NE5       30.01R
BROOKINGS      CLOUDY    69  68  96 CALM      30.01
SISSETON         N/A     67  64  90 W3        30.01R
$$

SDZ017-020-022-023-036>040-048>070-261200-
SOUTHEAST SOUTH DAKOTA

CITY           SKY/WX    TMP DP  RH WIND       PRES   REMARKS
SIOUX FALLS    CLOUDY    71  71 100 N5        30.00R
HURON          PTCLDY    70  69  97 NE7       29.98R
CHAMBERLAIN    MOCLDY    70  70  99 CALM      30.00R
MITCHELL       CLOUDY    69  68  96 E5        29.98R
YANKTON        CLOUDY    71  70  96 N7        29.95F
$$

ABBREVIATIONS USED IN REMARKS
   TC - TEMPERATURE IN CELSIUS
  WCI - WIND CHILL INDEX
   HX - HEAT INDEX
  VSB - VISIBILITY





USA.gov is the U.S. government's official web portal to all federal, state and local government web resources and services.